{"data":{"norad_id":68140,"intl_designator":"2026-048B","name":"SHIYAN-30 04","alt_names":[],"object_type":"PAYLOAD","status":"ACTIVE","operator":null,"country":"PRC","launch_date":"2026-03-12","launch_site_code":"XICLF","launch_vehicle":null,"mission":null,"orbit_class":"UNKNOWN","rcs_meters":null,"size_class":null,"mass_kg":null,"dimensions":null,"purposes":[],"wikipedia_slug":null,"has_3d_model":false,"image_url":null,"decayed_at":null,"tle_current":{"epoch":"2026-05-24T22:29:52.307808Z","epoch_age_seconds":83982,"freshness":"FRESH","line1":"1 68140U 26048B   26144.93741097  .00001614  00000+0  15995-3 0  9999","line2":"2 68140  34.9924  47.1648 0002941 180.0264 180.0441 14.91719039 10899","mean_motion":14.91719039,"eccentricity":0.0002941,"inclination_deg":34.9924,"raan_deg":47.1648,"arg_perigee_deg":180.0264,"mean_anomaly_deg":180.0441,"bstar":0.00015995,"rev_number":1089,"period_min":96.532923583608,"perigee_km":590.5251210133,"apogee_km":594.62529393373,"semimajor_km":6970.7122074735,"source":"CELESTRAK","updated_at":"2026-05-25T13:38:07.578524Z"}}}